TimeCST,TemperatureF,Dew PointF,Humidity,Sea Level PressureIn,VisibilityMPH,Wind Direction,Wind SpeedMPH,Gust SpeedMPH,PrecipitationIn,Events,Conditions,WindDirDegrees,DateUTC
12:53 AM,28.9,19.0,67,30.37,10.0,NNW,11.5,-,N/A,,Clear,330,2013-03-06 06:53:00
1:53 AM,28.0,18.0,66,30.39,10.0,North,13.8,-,N/A,,Clear,350,2013-03-06 07:53:00
2:53 AM,26.1,18.0,71,30.39,10.0,NNW,8.1,-,N/A,,Clear,340,2013-03-06 08:53:00
3:53 AM,24.1,18.0,77,30.39,10.0,NNW,8.1,-,N/A,,Clear,330,2013-03-06 09:53:00
4:53 AM,21.9,17.1,82,30.42,10.0,NNW,5.8,-,N/A,,Clear,340,2013-03-06 10:53:00
5:53 AM,21.9,17.1,82,30.44,10.0,NNW,5.8,-,N/A,,Clear,330,2013-03-06 11:53:00
6:53 AM,21.0,17.1,85,30.44,10.0,North,5.8,-,N/A,,Clear,360,2013-03-06 12:53:00
7:53 AM,26.1,19.9,78,30.45,10.0,North,6.9,-,N/A,,Clear,360,2013-03-06 13:53:00
8:53 AM,28.9,19.0,67,30.44,10.0,NNE,11.5,-,N/A,,Clear,30,2013-03-06 14:53:00
9:53 AM,30.9,19.0,61,30.45,10.0,ENE,8.1,-,N/A,,Clear,60,2013-03-06 15:53:00
10:53 AM,33.8,19.4,56,30.42,10.0,Calm,Calm,-,N/A,,Clear,0,2013-03-06 16:53:00
11:53 AM,36.0,21.0,55,30.44,10.0,Calm,Calm,-,N/A,,Clear,0,2013-03-06 17:53:00
12:53 PM,37.9,19.9,48,30.41,10.0,Calm,Calm,-,N/A,,Clear,0,2013-03-06 18:53:00
1:53 PM,41.0,21.9,47,30.38,10.0,North,5.8,-,N/A,,Clear,360,2013-03-06 19:53:00
2:53 PM,43.0,21.9,43,30.35,10.0,North,-9999.0,-,N/A,,Clear,0,2013-03-06 20:53:00
3:53 PM,43.0,23.0,45,30.34,10.0,North,-9999.0,-,N/A,,Clear,0,2013-03-06 21:53:00
4:53 PM,43.0,23.0,45,30.34,10.0,North,-9999.0,-,N/A,,Clear,0,2013-03-06 22:53:00
5:53 PM,39.9,24.1,53,30.32,10.0,NNE,5.8,-,N/A,,Clear,30,2013-03-06 23:53:00
6:53 PM,37.9,24.1,57,30.31,10.0,ENE,3.5,-,N/A,,Clear,60,2013-03-07 00:53:00
7:53 PM,36.0,24.1,62,30.30,10.0,ENE,3.5,-,N/A,,Clear,70,2013-03-07 01:53:00
8:53 PM,35.1,24.1,64,30.30,10.0,East,5.8,-,N/A,,Clear,80,2013-03-07 02:53:00
9:53 PM,34.0,25.0,70,30.29,10.0,ENE,4.6,-,N/A,,Clear,70,2013-03-07 03:53:00
10:53 PM,32.0,24.1,73,30.30,10.0,ENE,6.9,-,N/A,,Clear,60,2013-03-07 04:53:00
11:53 PM,33.1,25.0,72,30.28,10.0,ENE,5.8,-,N/A,,Mostly Cloudy,60,2013-03-07 05:53:00